Weather in Wichita

United States     37°40′10″N   97°20′36″W
В апреле 2022 года жителям России запретили посещать сайт meteo.paraplan.net по решению Генеральной прокуратуры. Аудитория сайта уменьшилась в 10 раз. Владельцы сайта не видят смысла в поддержке погодного сервера в таких условиях. Сайт будет закрыт в октябре.
temp.,
°C
wind,
m/s
gust,
m/s
humid.,
%
clouds,
%
prec.,
mm/h
press.,
hPa
HPBL,
m
4 october, tue
tue401:00+19sse493138 0.0 1020199
04:00+18sse363588 0.0 1019126
07:00+17sse243813 0.0 102085
10:00+22s462871 0.0 1020360
13:00+27ssw562049 0.0 10181584
16:00+29ssw4518100 0.0 10152170
19:00+26s222199 0.0 101524
22:00+23se342577 0.0 101692
5 october, wed
wed501:00+21s362740 0.0 1016158
04:00+19sw253255 0.0 1017117
07:00+20sw243259 0.0 1017138
10:00+23w3427100 0.0 1018460
13:00+27n2222100 0.0 10181119
16:00+28n3323100 0.0 10161758
19:00+25nnw3631100 0.0 1017285
22:00+22nnw34373 0.0 101992
6 october, thu
thu601:00+19n23360 0.0 101977
04:00+18n23420 0.0 102070
07:00+17n23480 0.0 102172
10:00+22nw22350 0.0 1022327
13:00+28nw36220 0.0 10212362
16:00+29nnw56182 0.0 10193238
19:00+25nne48231 0.0 1020350
22:00+21nne37315 0.0 1022146
7 october, fri
fri701:00+18ne612453 0.0 1024534
04:00+15ne612471 0.0 1026458
07:00+12ne510485 0.0 1028395
10:00+15ne57375 0.0 1030641
13:00+20ne45245 0.0 10281043
16:00+22ne442145 0.0 10251315
19:00+19ne352466 0.0 1026469
22:00+16ene472816 0.0 1027236
8 october, sat
sat801:00+14e372930 0.0 1027173
04:00+12e36335 0.0 1027161
07:00+12ese3535100 0.0 1028143
10:00+15se3429100 0.0 1028304
13:00+20ssw2424100 0.0 1026758
16:00+21sw5624100 0.0 10231119
19:00+19sw2439100 0.0 1022177
22:00+17sw25491 0.0 1022167